Weather in Oleksandrivka

Ukraine / Kirovohrad Region     48°08′20″N   32°53′26″E
temp.,
°C
wind,
m/s
gust,
m/s
humid.,
%
clouds,
%
prec.,
mm/h
press.,
hPa
HPBL,
m
14 april, wed
wed1400:00+10s2580100 0.0 1020172
03:00+8ssw35886 0.0 1019157
06:00+6s23905 0.0 101936
09:00+10se33735 0.0 1018474
12:00+14se345780 0.2 10161464
15:00+13se345899 0.3 10151047
18:00+14se2351100 0.0 1014142
21:00+12ese3760100 0.0 1014232
15 april, thu
thu1500:00+9se3773100 0.0 1014224
03:00+9ese2481100 0.1 1013178
06:00+8ese3683100 0.0 1012333
09:00+9se4692100 0.6 1012381
12:00+12s6771100 0.7 10111232
15:00+13s6756100 1.1 10111582
18:00+11ssw566699 0.2 1011981
21:00+7ssw588710 0.3 1012431
16 april, fri
fri1600:00+6ssw5688100 0.0 1012524
03:00+6ssw5791100 0.0 1012557
06:00+5ssw5892100 0.5 1012479
09:00+5ssw5791100 0.7 1013541
12:00+5ssw6890100 0.1 1014784
15:00+4ssw6994100 1.5 1015744
18:00+3sw5995100 0.1 1017601
21:00+3ssw4795100 0.1 1018735
17 april, sat
sat1700:00+4ssw4692100 0.1 1018750
03:00+4s3593100 0.2 1019634
06:00+4ssw2394100 0.1 1019461
09:00+5ssw2289100 0.1 1021448
12:00+8ssw347799 0.0 1021782
15:00+10wnw2264100 0.1 10211210
18:00+9ne2377100 0.0 1021240
21:00+8ne117896 0.0 102113
18 april, sun
sun1800:00+6ne118561 0.0 102210
03:00+5ene12885 0.0 102111
06:00+4ene228986 0.0 102116
09:00+9e3374100 0.0 1021394
12:00+13e335885 0.1 10201351
15:00+14ese3351100 0.2 10201376
18:00+13ene4658100 0.0 1020523
21:00+10ne51171100 0.0 1020298